Weather Roundup
Issued by NWS Springfield, MO

Home | Current Version | Previous Version | Text Only | Print | Product List | Glossary On
Versions: 1 2 3 4 5 6 7 8 9 10 11 12 13 14 15 16 17 18 19 20 21 22 23 24 25 26 27 28 29 30 31 32 33 34 35 36 37 38 39 40 41 42 43 44 45 46 47 48 49 50
000
NZUS99 KSGF 170559
HRRSGF

HOURLY WEATHER
NATIONAL WEATHER SERVICE SPRINGFIELD MO
100 AM CDT WED SEP 17 2014

......SGF CWA......

CITY           SKY/WX    TMP DP  RH WIND       PRES   REMARKS
SPRINGFIELD    CLOUDY    65  62  90 SE10      30.04F
6HR MIN TEMP:  63; 6HR MAX TEMP:  70;

JOPLIN         CLEAR     66  64  93 MISG      30.03S
6HR MIN TEMP:  66; 6HR MAX TEMP:  72;

WEST PLAINS    CLOUDY    63  58  83 S5        30.09F
6HR MIN TEMP:  61; 6HR MAX TEMP:  66;

ROLLA          MOCLDY    57  54  89 SE9       30.06F
6HR MIN TEMP:  52; 6HR MAX TEMP:  63;

OSAGE BEACH    CLOUDY    59  55  88 SE5       30.06F

......SURROUNDING SGF CWA......

CITY           SKY/WX    TMP DP  RH WIND       PRES   REMARKS
CHANUTE        PTCLDY    64  63  96 CALM      30.01F
PARSONS        CLEAR     66  65  96 CALM      30.02F
COFFEYVILLE    CLEAR     66  64  93 SE3       30.00F
EMPORIA        CLOUDY    64  63  96 SE7       30.00S
ROGERS AR      CLOUDY    66  64  94 SE8       30.06F FOG
SILOAM SPRINGS MOCLDY    64  61  88 SE5       30.06S VSB 3/4
HARRISON AR    FOG       64  64 100 SE7       30.08F VSB 1/4
NEAR YELLVILLE CLOUDY    64  59  82 CALM      30.08S

......KANSAS AND MISSOURI......

CITY           SKY/WX    TMP DP  RH WIND       PRES   REMARKS
KANSAS CTY INT CLOUDY    64  57  78 SE7       30.01F
DOWNTOWN KC    CLOUDY    67  57  70 E5        30.01F
COLUMBIA         N/A    N/A N/A N/A MISG      30.07F
SEDALIA        CLOUDY    61  57  87 S6        30.05F
ST JOSEPH      CLOUDY    63  55  75 SE5       30.01F
ST LOUIS       CLEAR     55  50  83 CALM      30.09F
SPIRIT OF STL  PTCLDY    50  49  96 CALM      30.09R FOG
KIRKSVILLE     CLEAR     50  47  89 SE6       30.06F
WICHITA        PTCLDY    67  64  90 S12       29.97F
TOPEKA         PTCLDY    66  60  81 SE10      29.98F
OLATHE         CLOUDY    62  58  86 S8        30.02F

......TENNESSEE......

CITY           SKY/WX    TMP DP  RH WIND       PRES   REMARKS
MEMPHIS        CLEAR     67  60  78 NE6       30.05F
NASHVILLE      PTCLDY    60  55  83 NW6       30.07S

......ARKANSAS.......

CITY           SKY/WX    TMP DP  RH WIND       PRES   REMARKS
FAYETTEVILLE   MOCLDY    65  65 100 CALM      30.06S
FT SMITH       CLOUDY    71  68  90 E7        30.03F
LITTLE ROCK    PTCLDY    66  60  81 NE6       30.06F

......OKLAHOMA.......

CITY           SKY/WX    TMP DP  RH WIND       PRES   REMARKS
TULSA          PTCLDY    71  67  87 S5        29.99F
PONCA CITY     CLEAR     68  64  87 SE8       29.99F
MCALESTER      PTCLDY    71  69  93 CALM      30.02F
OKLAHOMA CITY  MOCLDY    73  67  81 SE6       30.02S

......IOWA............

CITY           SKY/WX    TMP DP  RH WIND       PRES   REMARKS
DES MOINES     MOCLDY    55  49  80 SE6       30.03F
QUAD CITIES    CLEAR     46  43  89 CALM      30.08F

......ILLINOIS........

CITY           SKY/WX    TMP DP  RH WIND       PRES   REMARKS
QUINCY         CLEAR     54  51  90 S6        30.07F
CHICAGO        CLEAR     55  47  74 SW3       30.08F



USA.gov is the U.S. government's official web portal to all federal, state and local government web resources and services.